Location: Erba
(45.8000°N, 9.2500°E)
Time: 03:28:46
(UTC+01:00)

ISS - Visible Passes

Search period start: 14 December 2017 00:00
Search period end: 24 December 2017 00:00
Orbit: 403 x 407 km, 51.6° (Epoch: 14 December)

Date Brightness Start Highest point End Pass type
(mag) Time Alt. Az. Time Alt. Az. Time Alt. Az.
14 Dec -3.7 17:11:44 10° WNW 17:15:00 56° NNE 17:18:13 10° ESE visible
14 Dec -1.8 18:48:30 10° W 18:51:19 26° SW 18:52:27 21° S visible
15 Dec -2.8 17:56:02 10° WNW 17:59:13 46° SW 18:02:22 10° SE visible
16 Dec -0.6 18:41:31 10° WSW 18:43:01 13° SW 18:44:32 10° SSW visible
17 Dec -1.1 17:48:23 10° W 17:51:00 22° SW 17:53:35 10° S visible
19 Dec 0.1 17:42:11 10° SW 17:42:35 10° SW 17:42:59 10° SW visible
